Location: Newark
(50.0306°N, 2.3272°E)
Time: 11:21:28
(UTC+00:00)

Transit 2A Rocket - Pass Details

Date: 14 December 2019
Orbit: 593 x 910 km, 66.7° (Epoch: 27 January)

Event Time Altitude Azimuth Distance (km) Brightness Sun altitude
Rises 00:27:20 0° 318° (NW) 2,874 - -61.9°
Reaches altitude 10° 00:29:37 10° 312° (NW) 1,991 - -61.8°
Maximum altitude 00:33:49 42° 241° (WSW) 925 - -61.5°
Drops below altitude 10° 00:38:18 10° 171° (S) 2,121 - -61.2°
Sets 00:40:48 0° 165° (SSE) 3,086 - -61.0°
